When you browse on this site, cookies collect data to enhance your experience and personalize the content and advertising you see.
Visit our Privacy Policy to learn more. By continuing to use the site, you agree to this use of cookies and data.

Meteo pe oră la Litin

Astăzi, 4 Iulie, Sâmbătă

Timp Temperatura Precipitaţii Vânt Presiune Umiditate
00:00 +21°C° 0 mm 2 m/s 734 mmHg 82%
01:00 +21°C° 0 mm 1 m/s 734 mmHg 83%
02:00 +21°C° 0 mm 1 m/s 735 mmHg 85%
03:00 +20°C° 0.1 mm 2 m/s 735 mmHg 87%
04:00 +20°C° 0.1 mm 2 m/s 735 mmHg 89%
05:00 +19°C° 0.1 mm 3 m/s 735 mmHg 90%
06:00 +19°C° 0.3 mm 3 m/s 735 mmHg 91%
07:00 +19°C° 0.3 mm 3 m/s 736 mmHg 92%
08:00 +19°C° 0.3 mm 3 m/s 736 mmHg 92%
09:00 +20°C° 0.1 mm 3 m/s 736 mmHg 92%
10:00 +20°C° 0.1 mm 3 m/s 736 mmHg 92%
11:00 +20°C° 0.1 mm 2 m/s 737 mmHg 92%
12:00 +21°C° 0.2 mm 2 m/s 737 mmHg 88%
13:00 +23°C° 0.2 mm 2 m/s 737 mmHg 85%
14:00 +24°C° 0.2 mm 1 m/s 737 mmHg 82%
15:00 +24°C° 0.2 mm 2 m/s 736 mmHg 83%
16:00 +24°C° 0.2 mm 2 m/s 736 mmHg 83%
17:00 +24°C° 0.2 mm 2 m/s 736 mmHg 84%
18:00 +23°C° 0.2 mm 2 m/s 736 mmHg 87%
19:00 +21°C° 0.2 mm 2 m/s 736 mmHg 90%
20:00 +20°C° 0.2 mm 2 m/s 736 mmHg 92%
21:00 +20°C° 0.2 mm 2 m/s 736 mmHg 93%
22:00 +20°C° 0.2 mm 2 m/s 736 mmHg 93%
23:00 +19°C° 0.2 mm 3 m/s 736 mmHg 93%

Mâine, 5 Iulie, Duminică

Timp Temperatura Precipitaţii Vânt Presiune Umiditate
00:00 +19°C° 0 mm 3 m/s 736 mmHg 93%
01:00 +18°C° 0 mm 3 m/s 736 mmHg 94%
02:00 +18°C° 0 mm 3 m/s 736 mmHg 94%
03:00 +18°C° 0 mm 3 m/s 736 mmHg 95%
04:00 +18°C° 0 mm 3 m/s 736 mmHg 95%
05:00 +18°C° 0 mm 3 m/s 736 mmHg 96%
06:00 +19°C° 0 mm 3 m/s 736 mmHg 92%
07:00 +20°C° 0 mm 3 m/s 736 mmHg 88%
08:00 +22°C° 0 mm 3 m/s 736 mmHg 84%
09:00 +24°C° 0 mm 3 m/s 737 mmHg 79%
10:00 +25°C° 0 mm 4 m/s 737 mmHg 74%
11:00 +26°C° 0 mm 4 m/s 737 mmHg 69%
12:00 +26°C° 0 mm 4 m/s 737 mmHg 67%
13:00 +27°C° 0 mm 4 m/s 737 mmHg 65%
14:00 +27°C° 0 mm 4 m/s 736 mmHg 63%
15:00 +27°C° 0 mm 3 m/s 736 mmHg 65%
16:00 +27°C° 0 mm 3 m/s 736 mmHg 66%
17:00 +27°C° 0 mm 3 m/s 736 mmHg 67%
18:00 +25°C° 0 mm 3 m/s 736 mmHg 72%
19:00 +24°C° 0 mm 2 m/s 736 mmHg 77%
20:00 +21°C° 0 mm 2 m/s 736 mmHg 82%
21:00 +20°C° 0 mm 2 m/s 736 mmHg 85%
22:00 +19°C° 0 mm 2 m/s 736 mmHg 87%
23:00 +18°C° 0 mm 2 m/s 736 mmHg 89%

Poimâine, 6 Iulie, Luni

Timp Temperatura Precipitaţii Vânt Presiune Umiditate
00:00 +18°C° 0 mm 2 m/s 736 mmHg 89%
01:00 +19°C° 0 mm 1 m/s 736 mmHg 89%
02:00 +18°C° 0 mm 1 m/s 736 mmHg 89%
03:00 +18°C° 0 mm 1 m/s 736 mmHg 88%
04:00 +18°C° 0 mm 1 m/s 735 mmHg 88%
05:00 +18°C° 0 mm 1 m/s 735 mmHg 88%
06:00 +20°C° 0 mm 1 m/s 735 mmHg 83%
07:00 +22°C° 0 mm 1 m/s 735 mmHg 78%
08:00 +23°C° 0 mm 1 m/s 736 mmHg 73%
09:00 +25°C° 0 mm 1 m/s 735 mmHg 69%
10:00 +26°C° 0 mm 1 m/s 735 mmHg 65%
11:00 +27°C° 0 mm 1 m/s 735 mmHg 61%
12:00 +28°C° 0 mm 1 m/s 735 mmHg 58%
13:00 +28°C° 0 mm 1 m/s 734 mmHg 56%
14:00 +29°C° 0 mm 1 m/s 734 mmHg 53%
15:00 +29°C° 0 mm 1 m/s 734 mmHg 53%
16:00 +29°C° 0 mm 1 m/s 733 mmHg 54%
17:00 +29°C° 0 mm 1 m/s 733 mmHg 54%
18:00 +27°C° 0 mm 1 m/s 733 mmHg 60%
19:00 +25°C° 0 mm 1 m/s 733 mmHg 65%
20:00 +22°C° 0 mm 0 m/s 732 mmHg 70%
21:00 +21°C° 0 mm 0 m/s 732 mmHg 73%
22:00 +20°C° 0 mm 0 m/s 732 mmHg 76%
23:00 +19°C° 0 mm 0 m/s 732 mmHg 79%

7 Iulie, Marţi

Timp Temperatura Precipitaţii Vânt Presiune Umiditate
00:00 +19°C° 0 mm 0 m/s 732 mmHg 80%
01:00 +18°C° 0 mm 0 m/s 732 mmHg 81%
02:00 +18°C° 0 mm 0 m/s 732 mmHg 82%
03:00 +18°C° 0 mm 0 m/s 732 mmHg 82%
04:00 +18°C° 0 mm 0 m/s 732 mmHg 83%
05:00 +20°C° 0 mm 1 m/s 732 mmHg 83%
06:00 +20°C° 0.2 mm 2 m/s 732 mmHg 82%
07:00 +21°C° 0.2 mm 3 m/s 733 mmHg 82%
08:00 +23°C° 0.2 mm 4 m/s 733 mmHg 81%
09:00 +23°C° 1.1 mm 5 m/s 733 mmHg 81%
10:00 +22°C° 1.1 mm 6 m/s 733 mmHg 81%
11:00 +22°C° 1.1 mm 7 m/s 734 mmHg 82%
12:00 +21°C° 0.8 mm 7 m/s 734 mmHg 83%
13:00 +20°C° 0.8 mm 7 m/s 734 mmHg 83%
14:00 +18°C° 0.8 mm 7 m/s 734 mmHg 84%
15:00 +17°C° 0.4 mm 6 m/s 734 mmHg 84%
16:00 +17°C° 0.4 mm 6 m/s 734 mmHg 84%
17:00 +16°C° 0.4 mm 5 m/s 735 mmHg 84%
18:00 +16°C° 0.2 mm 5 m/s 735 mmHg 84%
19:00 +15°C° 0.2 mm 5 m/s 735 mmHg 85%
20:00 +14°C° 0.2 mm 5 m/s 735 mmHg 85%
21:00 +14°C° 0 mm 5 m/s 736 mmHg 86%
22:00 +14°C° 0 mm 4 m/s 736 mmHg 87%
23:00 +14°C° 0 mm 4 m/s 736 mmHg 88%

8 Iulie, Miercuri

Timp Temperatura Precipitaţii Vânt Presiune Umiditate
00:00 +13°C° 0 mm 4 m/s 736 mmHg 89%
01:00 +13°C° 0 mm 4 m/s 736 mmHg 91%
02:00 +12°C° 0 mm 3 m/s 736 mmHg 92%
03:00 +12°C° 0 mm 3 m/s 736 mmHg 93%
04:00 +12°C° 0 mm 3 m/s 737 mmHg 93%
05:00 +11°C° 0 mm 3 m/s 737 mmHg 93%
06:00 +13°C° 0 mm 4 m/s 737 mmHg 89%
07:00 +14°C° 0 mm 4 m/s 737 mmHg 84%
08:00 +17°C° 0 mm 4 m/s 738 mmHg 80%
09:00 +18°C° 0 mm 4 m/s 738 mmHg 75%
10:00 +19°C° 0 mm 4 m/s 738 mmHg 70%
11:00 +20°C° 0 mm 4 m/s 738 mmHg 65%
12:00 +20°C° 0.1 mm 5 m/s 738 mmHg 63%
13:00 +21°C° 0.1 mm 5 m/s 738 mmHg 61%
14:00 +21°C° 0.1 mm 5 m/s 738 mmHg 60%
15:00 +21°C° 0 mm 5 m/s 738 mmHg 61%
16:00 +21°C° 0 mm 5 m/s 738 mmHg 62%
17:00 +20°C° 0 mm 5 m/s 738 mmHg 64%
18:00 +19°C° 0 mm 4 m/s 739 mmHg 70%
19:00 +17°C° 0 mm 3 m/s 739 mmHg 76%
20:00 +16°C° 0 mm 3 m/s 739 mmHg 82%
21:00 +15°C° 0 mm 2 m/s 739 mmHg 84%
22:00 +14°C° 0 mm 2 m/s 739 mmHg 86%
23:00 +13°C° 0 mm 2 m/s 740 mmHg 88%

9 Iulie, Joi

Timp Temperatura Precipitaţii Vânt Presiune Umiditate
00:00 +13°C° 0 mm 2 m/s 740 mmHg 89%
01:00 +12°C° 0 mm 2 m/s 740 mmHg 90%
02:00 +12°C° 0 mm 2 m/s 740 mmHg 91%
03:00 +12°C° 0 mm 2 m/s 740 mmHg 91%
04:00 +12°C° 0 mm 2 m/s 740 mmHg 92%
05:00 +12°C° 0 mm 2 m/s 740 mmHg 92%
06:00 +14°C° 0 mm 2 m/s 740 mmHg 86%
07:00 +15°C° 0 mm 2 m/s 741 mmHg 79%
08:00 +17°C° 0 mm 3 m/s 741 mmHg 73%
09:00 +18°C° 0 mm 3 m/s 741 mmHg 68%
10:00 +19°C° 0 mm 3 m/s 741 mmHg 63%
11:00 +20°C° 0 mm 3 m/s 741 mmHg 59%
12:00 +21°C° 0 mm 3 m/s 741 mmHg 57%
13:00 +21°C° 0 mm 3 m/s 740 mmHg 56%
14:00 +22°C° 0 mm 3 m/s 740 mmHg 54%
15:00 +22°C° 0 mm 3 m/s 740 mmHg 56%
16:00 +22°C° 0 mm 3 m/s 740 mmHg 57%
17:00 +23°C° 0 mm 2 m/s 739 mmHg 58%
18:00 +20°C° 0 mm 2 m/s 739 mmHg 64%
19:00 +19°C° 0 mm 1 m/s 739 mmHg 70%
20:00 +16°C° 0 mm 0 m/s 739 mmHg 75%
21:00 +16°C° 0 mm 1 m/s 739 mmHg 77%
22:00 +15°C° 0 mm 1 m/s 739 mmHg 79%
23:00 +15°C° 0 mm 1 m/s 739 mmHg 80%
Arată mai mult